Flag for Canada Weather past 2 weeks in Sanikiluaq, Nunavut, Canada

Now
21 °F

Overcast.


Feels Like: 15 °F
Forecast: 5 / 18 °F
Wind: 5 mph from Northwest

Location: Kuujjuarapik

Current Time: Apr 19, 2015 at 3:22:39 PM

Latest Report: Apr 19, 2015 at 2:48 PM


Visibility: 9 mi

Pressure: 30.37 "Hg

Humidity: 74%

Dew point: 14 °F

Location of SanikiluaqLocation

Historic Weather in Sanikiluaq — Graph

°F

Sanikiluaq temperature yesterday

Maximum temperature yesterday: 25 °F (at 2:00 PM)
Minimum temperature yesterday: 3 °F (at 6:00 AM)
Average temperature yesterday: 16 °F

Past Weeks' High & Low Weather Summary

 TemperatureHumidityPressure
High48 °F (Apr 12, 5:00 PM)100% (Apr 10, 10:00 PM)30.58 "Hg (Apr 10, 10:00 PM)
Low-18 °F (Apr 8, 5:00 AM)32% (Apr 9, 2:00 PM)29.14 "Hg (Apr 14, 4:00 AM)
Average15 °F80%29.94 "Hg
* Reported Apr 4 2:00 PM — Apr 19 2:04 PM, Sanikiluaq, Weather by CustomWeather, © 2015

Note: Actual official high and low records may vary slightly from our data, if they occured in-between our weather recording intervals... More about our weather records

Advertising

Sanikiluaq weather history for previous 24 hours

 ConditionsComfort  
Time TempWeatherWind HumidityBarometerVisibility
2:04 PM
Sun, Apr 19
21 °FOvercast.9 mph74%30.37 "Hg9 mi
1:48 PM21 °FLight snow. Overcast.7 mph80%30.37 "Hg7 mi
1:00 PM21 °FLight snow. Overcast.7 mph80%30.36 "Hg9 mi
12:00 PM19 °FLight snow. Passing clouds.7 mph79%30.35 "Hg9 mi
11:48 AM19 °FLight snow. Scattered clouds.5 mph86%30.35 "Hg9 mi
11:00 AM19 °FLight snow. Overcast.6 mph86%30.35 "Hg7 mi
10:50 AM19 °FLight snow. Overcast.5 mph86%30.35 "Hg6 mi
10:03 AM18 °FLight snow. Overcast.6 mph93%30.35 "Hg3 mi
9:02 AM18 °FLight snow. Overcast.5 mph86%30.35 "Hg3 mi
8:00 AM16 °FLight snow. Overcast.6 mph93%30.33 "Hg4 mi
7:54 AM16 °FLight snow. Overcast.6 mph86%30.33 "Hg5 mi
7:00 AM16 °FOvercast.7 mph93%30.31 "Hg9 mi
6:00 AM16 °FLight snow. Overcast.6 mph93%30.29 "Hg9 mi
5:55 AM16 °FOvercast.5 mph93%30.29 "Hg9 mi
5:00 AM16 °FLight snow. Overcast.6 mph93%30.27 "Hg9 mi
4:00 AM16 °FLight snow. Overcast.9 mph93%30.27 "Hg9 mi
3:00 AM18 °FLight snow. Overcast.13 mph93%30.25 "Hg9 mi
2:00 AM18 °FLight snow. Overcast.14 mph93%30.24 "Hg9 mi
1:02 AM18 °FLight snow. Overcast.13 mph93%30.23 "Hg5 mi
12:00 AM18 °FLight snow. Overcast.14 mph86%30.22 "Hg9 mi
11:00 PM
Sat, Apr 18
18 °FLight snow. Mostly cloudy.15 mph93%30.21 "Hg7 mi
10:00 PM18 °FLight snow. Overcast.12 mph93%30.21 "Hg3 mi
9:00 PM18 °FLight snow. Overcast.13 mph93%30.20 "Hg3 mi
8:55 PM18 °FLight snow. Overcast.13 mph93%30.20 "Hg3 mi
8:00 PM19 °FLight snow. Overcast.12 mph86%30.19 "Hg9 mi
7:00 PM19 °FLight snow. Overcast.10 mph86%30.18 "Hg9 mi
6:00 PM19 °FLight snow. Overcast.13 mph86%30.18 "Hg7 mi
5:00 PM19 °FLight snow. Overcast.16 mph86%30.16 "Hg9 mi
4:00 PM19 °FOvercast.20 mph86%30.15 "Hg9 mi
3:51 PM19 °FOvercast.18 mph86%30.15 "Hg8 mi
3:00 PM23 °FLight snow. Mostly cloudy.13 mph86%30.12 "Hg7 mi
Weather by CustomWeather, © 2015

See weather overviewHow to use our weather pages